User: anonymous   Login
Location: Caltech
(34.1382°N, 118.1253°W)
Time: 06:13:03
(UTC-08:00)
Language:

Iridium 94 - Orbit

View from above orbital plane
View from above orbital plane
View from above satellite
View from above satellite

Ground track
Ground track

The orbit data is extracted from the following two-line orbital elements,

1 27374U 02005C   14355.41984774  .00000945  00000-0  33017-3 0  7827
2 27374 086.3975 275.5688 0003756 124.8200 011.9217 14.34216226685698
Epoch (UTC): 21 December 2014 10:04:34
Eccentricity: 0.0003756
inclination: 86.3975°
perigee height: 775 km
apogee height: 780 km
right ascension of ascending node: 275.5688°
argument of perigee: 124.8200°
revolutions per day: 14.34216226
mean anomaly at epoch: 11.9217°
orbit number at epoch: 68569

The dashed part of the orbit path shows where the satellite is in the earth's shadow,  

DLR